Regional Weather Roundup
Issued by NWS Northern Indiana

Home | Current Version | Previous Version | Graphics & Text | Print | Product List | Glossary On
Versions: 1 2 3 4 5 6 7 8 9 10 11 12 13 14 15 16 17 18 19 20 21 22 23 24 25 26 27 28 29 30 31 32 33 34 35 36 37 38 39 40 41 42 43 44 45 46 47 48 49 50
000
ASUS43 KIWX 280110
RWRIWX

KIWX WEATHER ROUNDUP
NATIONAL WEATHER SERVICE NORTHERN INDIANA
900 PM EDT FRI MAY 27 2016

NOTE: "FAIR" INDICATES FEW OR NO CLOUDS BELOW 12,000 FEET WITH NO
SIGNIFICANT WEATHER AND/OR OBSTRUCTIONS TO VISIBILITY.

* THESE STATIONS ARE NOT UNDER NWS QUALITY CONTROL. THEY ALSO MAY NOT
  REPORT WEATHER SUCH AS PRECIPITATION OR FOG.

INZ001>027-280200-
NORTHERN INDIANA

CITY           SKY/WX    TMP DP  RH WIND       PRES   REMARKS
GARY*          MOCLDY    77  73  88 SE12G29   29.87R
VALPARAISO     CLOUDY    71  68  90 CALM      29.89R
MICHIGAN CITY* CLOUDY    70  70 100 CALM      29.88S FOG
LAPORTE*       CLOUDY    73  73 100 SE3       29.90R
KNOX*          CLOUDY    72  68  88 CALM      29.89R
SOUTH BEND     CLOUDY    71  68  90 E3        29.90R
ELKHART*       MOCLDY    75  68  78 CALM      29.90S
GOSHEN         CLEAR     78  59  51 S8        29.90R
MONTICELLO*    CLOUDY    80  52  38 S10       29.89R
LOGANSPORT*    CLEAR     79  54  41 S14       29.91S
ROCHESTER*     CLEAR     82  59  44 S8        29.91R
WARSAW*        PTCLDY    79  59  50 CALM      29.91R
ANGOLA*          N/A     81  73  78 S3        29.92S
FORT WAYNE     MOCLDY    80  58  46 S9        29.93R
HUNTINGTON*    CLEAR    N/A N/A N/A S9        29.92S
PERU/GRISSOM   CLEAR     80  57  45 S12       29.91R
MARION*        CLEAR     80  56  43 S12       29.94S HAZE

$$
INZ028>050-280200-
CENTRAL INDIANA

CITY           SKY/WX    TMP DP  RH WIND       PRES   REMARKS
LAFAYETTE      CLOUDY    78  59  51 S8        29.89R
KOKOMO*        CLEAR     79  57  47 S9        29.92R
MUNCIE*        CLEAR     83  60  45 S14       29.95R
INDIANAPOLIS   CLOUDY    79  60  52 S13       29.93R

$$
MIZ043>046-050>051-056>058-064>065-071>073-077>080-280200-
SOUTHWEST LOWER MICHIGAN

CITY           SKY/WX    TMP DP  RH WIND       PRES   REMARKS
BATTLE CREEK   CLOUDY    78  63  59 SE7       29.92R
BENTON HARBOR  CLOUDY    71  67  87 SE5       29.88F
COLDWATER*     PTCLDY    77  63  61 CALM      29.92S
HILLSDALE*     MOCLDY    78  58  49 E3        29.95R
HOLLAND        CLOUDY    71  65  81 SW6       29.91R
GRAND RAPIDS   LGT RAIN  78  65  63 SE7       29.90R
KALAMAZOO      MOCLDY    79  60  52 S6        29.90S
STURGIS*       CLEAR     78  61  55 S5        29.91S
THREE RIVERS*  FAIR      79  58  48 S3        29.91R

$$
OHZ001>008-015>018-024>025-280200-
NORTHWEST OHIO

CITY           SKY/WX    TMP DP  RH WIND       PRES   REMARKS
WAUSEON*         N/A     81  81 100 SE5       29.94R
DEFIANCE       CLOUDY    83  59  44 S6        29.93R
FINDLAY        PTCLDY    79  59  50 S8        29.95R
TOLEDO EXPRESS PTCLDY    78  64  61 E5        29.93R
TOLEDO METCALF CLOUDY    79  63  57 E7        29.95R
LIMA           CLOUDY    81  60  48 S8        29.97R

$$
AND FOR LAKE MICHIGAN COASTAL AND OPEN LAKE BUOY OBSERVATIONS

STATION/POSITION TEMP    WIND        PRES    VSBY  WAVE
                 AIR SEA DIR/SP/G                  HT/PER
                 (F)     (DEG/KT/KT) (MB)    (MI)  (FT/S)
CALUMET HARBOR                       1010.1R
MICHIGAN CITY     73     140/  8/ 11   N/A
BURNS HARBOR      75     180/  6/  9 1011.5S
SAINT JOSEPH      70      90/  1/  4 1012.5R
SOUTH LAKE BUOY   58 51  150/ 12/ 14 1010.7R         1
4 MI NW BRIDGMAN  66 62  120/  6/  8   N/A           1/ 3
MICHIGAN CITY     65 59  160/  6/  8   N/A           1

$$
&&



USA.gov is the U.S. government's official web portal to all federal, state and local government web resources and services.